| time (UTC) | temp C | wind direction | speed KPH | gust KPH | rain 1hr cm | rain 24hr cm | rain mn cm | humidity % | barometer mb |
| 20260505121556 | 11 | 239 | 8.0 | 14.5 | 0.00 | 0.00 | 0.00 | 89 | 1011.6 |
| 20260505120057 | 11 | 222 | 8.0 | 17.7 | 0.00 | 0.00 | 0.00 | 89 | 1011.4 |
| 20260505114554 | 11 | 225 | 9.7 | 16.1 | 0.00 | 0.00 | 0.00 | 87 | 1011.5 |
| 20260505113058 | 11 | 225 | 8.0 | 14.5 | 0.00 | 0.00 | 0.00 | 87 | 1011.4 |
| 20260505111555 | 11 | 234 | 4.8 | 11.3 | 0.00 | 0.00 | 0.00 | 89 | 1011.4 |
| 20260505101537 | 10 | 236 | 6.4 | 12.9 | 0.00 | 0.00 | 0.00 | 88 | 1011.1 |
| 20260505100042 | 10 | 229 | 8.0 | 16.1 | 0.00 | 0.00 | 0.00 | 90 | 1011.1 |
| 20260505094533 | 10 | 236 | 8.0 | 14.5 | 0.00 | 0.00 | 0.00 | 91 | 1011.1 |
| 20260505093133 | 10 | 244 | 6.4 | 17.7 | 0.00 | 0.00 | 0.00 | 91 | 1011.1 |
| 20260505091534 | 10 | 276 | 6.4 | 16.1 | 0.00 | 0.00 | 0.00 | 88 | 1011.0 |
| 20260505090044 | 9 | 271 | 8.0 | 16.1 | 0.00 | 0.00 | 0.00 | 90 | 1010.9 |
| 20260505084534 | 9 | 254 | 8.0 | 20.9 | 0.00 | 0.00 | 0.00 | 90 | 1010.8 |
| 20260505083034 | 9 | 235 | 6.4 | 16.1 | 0.00 | 0.00 | 0.00 | 89 | 1010.8 |
| 20260505081622 | 9 | 230 | 9.7 | 17.7 | 0.00 | 0.00 | 0.00 | 91 | 1010.7 |
| 20260505080035 | 9 | 221 | 8.0 | 17.7 | 0.00 | 0.00 | 0.00 | 92 | 1010.6 |
| 20260505074516 | 8 | 232 | 8.0 | 17.7 | 0.00 | 0.00 | 0.00 | 91 | 1010.4 |
| 20260505073016 | 8 | 229 | 9.7 | 16.1 | 0.00 | 0.00 | 0.00 | 91 | 1010.4 |
| 20260505071523 | 8 | 247 | 6.4 | 14.5 | 0.00 | 0.00 | 0.00 | 91 | 1010.4 |
| 20260505070011 | 8 | 272 | 8.0 | 20.9 | 0.00 | 0.00 | 0.00 | 92 | 1010.3 |
| 20260505064508 | 8 | 232 | 6.4 | 16.1 | 0.00 | 0.00 | 0.00 | 91 | 1010.3 |
| 20260505063007 | 8 | 227 | 8.0 | 16.1 | 0.00 | 0.00 | 0.00 | 92 | 1010.3 |
| 20260505061508 | 8 | 243 | 8.0 | 14.5 | 0.00 | 0.00 | 0.00 | 93 | 1010.3 |
| 20260505060058 | 8 | 233 | 8.0 | 19.3 | 0.00 | 0.00 | 0.00 | 94 | 1010.3 |
| 20260505054604 | 8 | 236 | 8.0 | 16.1 | 0.00 | 0.00 | 0.00 | 94 | 1010.3 |
| 20260505053050 | 7 | 214 | 9.7 | 16.1 | 0.00 | 0.00 | 0.00 | 93 | 1010.1 |
| 20260505051545 | 7 | 212 | 6.4 | 12.9 | 0.00 | 0.00 | 0.00 | 94 | 1010.0 |
| 20260505041529 | 7 | 223 | 6.4 | 9.7 | 0.00 | 0.00 | 0.00 | 94 | 1009.6 |
| 20260505033031 | 7 | 235 | 4.8 | 12.9 | 0.00 | 0.00 | 0.00 | 95 | 1009.3 |
| 20260505031519 | 6 | 223 | 3.2 | 8.0 | 0.00 | 0.00 | 0.00 | 96 | 1009.2 |
| 20260505023011 | 6 | 197 | 3.2 | 6.4 | 0.00 | 0.00 | 0.00 | 94 | 1009.1 |
| 20260505021525 | 6 | 197 | 3.2 | 6.4 | 0.00 | 0.00 | 0.00 | 94 | 1009.1 |
| 20260505020008 | 6 | 196 | 3.2 | 14.5 | 0.00 | 0.00 | 0.00 | 94 | 1008.9 |
| 20260505014508 | 6 | 235 | 4.8 | 8.0 | 0.00 | 0.00 | 0.00 | 96 | 1008.9 |
| 20260505013007 | 5 | 168 | 1.6 | 8.0 | 0.00 | 0.00 | 0.00 | 96 | 1009.0 |
| 20260505011505 | 5 | 175 | 1.6 | 6.4 | 0.00 | 0.00 | 0.00 | 96 | 1009.0 |
| 20260505010003 | 6 | 217 | 1.6 | 3.2 | 0.00 | 0.00 | 0.00 | 95 | 1008.9 |
| 20260505004504 | 6 | 217 | 0.0 | 3.2 | 0.00 | 0.00 | 0.00 | 95 | 1008.9 |
| 20260505003001 | 6 | 234 | 0.0 | 4.8 | 0.00 | 0.00 | 0.00 | 95 | 1008.9 |
| 20260505001600 | 6 | 232 | 0.0 | 3.2 | 0.00 | 0.00 | 0.00 | 94 | 1008.9 |
| 20260505000059 | 7 | 232 | 0.0 | 4.8 | 0.00 | 0.00 | 0.00 | 94 | 1009.0 |
| 20260504234558 | 7 | 200 | 0.0 | 3.2 | 0.00 | 0.00 | 0.00 | 93 | 1009.1 |
| 20260504233101 | 8 | 200 | 3.2 | 8.0 | 0.00 | 0.00 | 0.00 | 92 | 1009.1 |
| 20260504231554 | 7 | 264 | 3.2 | 12.9 | 0.00 | 0.00 | 0.00 | 94 | 1009.2 |
| 20260504230051 | 6 | 188 | 3.2 | 4.8 | 0.00 | 0.00 | 0.00 | 97 | 1009.2 |
| 20260504224550 | 6 | 183 | 0.0 | 0.0 | 0.00 | 0.00 | 0.00 | 96 | 1009.3 |
| 20260504223053 | 6 | 183 | 0.0 | 1.6 | 0.00 | 0.00 | 0.00 | 95 | 1009.4 |
| 20260504221548 | 7 | 183 | 3.2 | 8.0 | 0.00 | 0.00 | 0.00 | 95 | 1009.6 |
| 20260504214543 | 7 | 182 | 0.0 | 3.2 | 0.00 | 0.00 | 0.00 | 94 | 1009.4 |
| 20260504213045 | 8 | 184 | 1.6 | 6.4 | 0.00 | 0.00 | 0.00 | 94 | 1009.4 |
| 20260504211541 | 8 | 207 | 3.2 | 6.4 | 0.00 | 0.00 | 0.00 | 94 | 1009.3 |
| 20260504210040 | 8 | 229 | 0.0 | 4.8 | 0.00 | 0.00 | 0.00 | 93 | 1009.2 |
| 20260504204557 | 9 | 268 | 1.6 | 8.0 | 0.00 | 0.00 | 0.00 | 92 | 1009.2 |
| 20260504203041 | 9 | 274 | 1.6 | 6.4 | 0.00 | 0.00 | 0.00 | 92 | 1009.1 |
| 20260504201538 | 10 | 264 | 3.2 | 11.3 | 0.00 | 0.00 | 0.00 | 92 | 1008.9 |
| 20260504200043 | 10 | 279 | 8.0 | 16.1 | 0.00 | 0.00 | 0.00 | 91 | 1008.9 |
| 20260504194542 | 10 | 274 | 6.4 | 19.3 | 0.00 | 0.00 | 0.00 | 87 | 1008.8 |
| 20260504193038 | 10 | 224 | 12.9 | 24.1 | 0.00 | 0.00 | 0.00 | 87 | 1008.2 |
| 20260504191540 | 10 | 227 | 9.7 | 17.7 | 0.00 | 0.00 | 0.00 | 90 | 1008.2 |
| 20260504190039 | 10 | 219 | 6.4 | 12.9 | 0.00 | 0.00 | 0.00 | 90 | 1008.1 |
| 20260504184537 | 10 | 205 | 6.4 | 17.7 | 0.00 | 0.00 | 0.00 | 89 | 1007.9 |
| 20260504183036 | 10 | 223 | 8.0 | 14.5 | 0.00 | 0.00 | 0.00 | 92 | 1007.8 |
| 20260504181534 | 10 | 205 | 9.7 | 17.7 | 0.00 | 0.00 | 0.00 | 92 | 1007.6 |
| 20260504180034 | 11 | 224 | 11.3 | 22.5 | 0.00 | 0.00 | 0.00 | 89 | 1007.6 |
| 20260504174533 | 12 | 213 | 9.7 | 22.5 | 0.00 | 0.00 | 0.00 | 89 | 1007.4 |
| 20260504173033 | 12 | 215 | 11.3 | 22.5 | 0.00 | 0.00 | 0.00 | 88 | 1007.3 |
| 20260504171534 | 13 | 185 | 11.3 | 25.7 | 0.00 | 0.00 | 0.00 | 88 | 1007.3 |